Kosmos-2132

operational
NORAD ID: 21107 Int'l Des: 1991-009 Owner: UNKSR Country: SU
LEOCIRCULAR

Über Kosmos-2132

Beschreibung wird geladen...

Live-Position

3D-Globus wird geladen...

Nächste Überflüge

Höhenverlauf

Altitude vs Time

uPlot chart will show altitude changes over time

Zweizeiliger Elementsatz

1 21107U 91009H 26072.00129730 .00000005 00000-0 12718-3 0 9996
2 21107 74.0272 272.0043 0033581 87.9187 27.5706 12.55500926607727
Epoch: 13. März 2026 • Age: 8 hours

Aktueller Status

Höhe 1478.9 km
Geschwindigkeit 7.11 km/s
Subsatellitenpunkt -45.50°S, 173.29°E
Startdatum 12. Feb. 1991
Alter 35 years
Typ other

Technische Details

Klassifizierung Payload
Masse 60.00 kg
Trockenmasse 60.00 kg
Gesamtmasse 60.00 kg
Länge 0.80 m
Durchmesser 0.80 m
Spannweite 0.80 m
Form Poly
Hersteller NPOPM
Bus-Typ Strela-1 11F625
Phasenstatus In Orbit
Besitzer/Staat UNKSR/SU

Große Konstellationen

Loading constellations...